[[{"header":{"parameterUnit":"m.s-1","parameterCategory":1,"la1":30.2992,"la2":30.254,"lo1":-89.0895,"lo2":-89.0443,"dy":0.0025,"dx":0.0025,"nx":19,"ny":19,"refTime":"2026-03-14T09:00:00:Z","depth":0,"parameterNumber":2,"parameterNumberName":"U-component_of_WINDS"},"data":[0,0,0,-4.651,-4.6515,-4.6749,-4.675,-4.7058,-4.706,0,0,0,0,0,0,0,0,0,0,0,-4.6445,-4.6447,-4.651,-4.6516,-4.6749,-4.675,-4.7057,-4.706,0,0,0,0,0,0,0,0,0,0,0,-4.6444,-4.6447,-4.645,-4.6517,-4.6749,-4.675,-4.7056,-4.6877,0,0,0,0,0,0,0,0,0,0,-4.6649,-4.6593,-4.6446,-4.645,-4.6518,-4.6749,-4.675,-4.6869,-4.6889,-4.6955,0,-4.7014,0,-4.7042,-4.7082,-4.7083,0,0,0,-4.6513,-4.6576,-4.6635,-4.645,-4.652,-4.6748,-4.6643,-4.688,-4.6902,-4.6982,-4.7019,-4.703,-4.7047,-4.7084,-4.7085,-4.7474,-4.7476,0,0,-4.65,-4.649,-4.662,-4.665,-4.6613,-4.6636,-4.665,-4.6893,-4.6933,-4.702,-4.7037,-4.7052,-4.7086,-4.7088,-4.7473,-4.7475,0,0,0,-4.6465,-4.6481,-4.6534,-4.6638,-4.6679,-4.6643,-4.666,-4.6923,-4.6941,-4.704,-4.7056,-4.7087,-4.7091,-4.7471,-4.7473,-4.7557,0,0,0,-4.6457,-4.646,-4.6528,-4.6524,-4.6675,-4.6804,-4.6684,-4.6924,-4.6952,-4.7055,-4.7088,-4.7094,-4.7468,-4.7472,-4.755,-4.7597,0,0,0,-4.6429,-4.6457,-4.6492,-4.6523,-4.6623,-4.68,-4.6832,-4.693,-4.6962,-4.7083,-4.7095,-4.7467,-4.7471,-4.7544,-4.7587,-4.7694,0,0,0,-4.6396,-4.6565,-4.6493,-4.6689,-4.6621,-4.685,-4.683,-4.7002,-4.7116,-4.7089,-4.7469,-4.7473,-4.7542,-4.7581,-4.7688,-4.778,-4.7819,0,0,-4.6603,-4.6589,-4.6705,-4.6648,-4.6886,-4.6815,-4.7067,-4.7182,-4.7205,-4.7384,-4.7393,-4.7552,-4.7586,-4.7693,-4.8042,-4.8072,0,0,0,-4.6767,-4.685,-4.6915,-4.7022,-4.7114,-4.7196,-4.7274,-4.7317,-4.7469,-4.7294,-4.7622,-4.7643,-4.7705,-4.775,-4.7776,-4.783,-4.7494,-4.7494,-4.7493,-4.7044,-4.7062,-4.7254,-4.73,-4.7405,-4.7484,-4.7571,-4.7642,-4.7632,-4.7709,-4.7761,-4.797,-4.8023,-4.8042,-4.8098,-4.7814,-4.7815,-4.7815,-4.7815,-4.7347,-4.7465,-4.7447,-4.7625,-4.7645,-4.7796,-4.788,-4.7867,-4.8011,-4.7933,-4.7989,-4.79,-4.8075,-4.8124,-4.7822,-4.782,-4.782,-4.7819,-4.7819,-4.7527,-4.7587,-4.7636,-4.7792,-4.7911,-4.7954,-4.8092,-4.8106,-4.8121,-4.8177,-4.8232,-4.823,-4.8228,-4.8203,-4.8203,-4.8204,-4.8205,-4.8205,-4.8206,-4.7694,-4.7746,-4.786,-4.7971,-4.8041,-4.8136,-4.8218,-4.8288,-4.8369,-4.8368,-4.8369,-4.8349,-4.8089,-4.8021,-4.8217,-4.8215,-4.8213,-4.8212,-4.8212,-4.7989,-4.7924,-4.8099,-4.817,-4.8301,-4.8418,-4.8434,-4.8576,-4.8636,-4.8704,-4.8674,-4.8481,-4.8468,-4.8447,-4.8391,-4.8671,-4.8671,-4.8671,-4.8671,-4.8138,-4.8134,-4.8315,-4.8426,-4.8537,-4.857,-4.8768,-4.8834,-4.8893,-4.8931,-4.8894,-4.8822,-4.8801,-4.8801,-4.8773,-4.872,-4.9077,-4.9078,-4.9078,-4.8319,-4.8326,-4.8491,-4.8545,-4.8649,-4.8738,-4.8925,-4.9055,-4.9108,-4.9095,-4.8961,-4.8944,-4.8829,-4.879,-4.877,-4.8726,-4.8631,0,0]},{"header":{"parameterUnit":"m.s-1","parameterCategory":1,"la1":30.2992,"la2":30.254,"lo1":-89.0895,"lo2":-89.0443,"dy":0.0025,"dx":0.0025,"nx":19,"ny":19,"refTime":"2026-03-14T09:00:00:Z","depth":0,"parameterNumber":3,"parameterNumberName":"V-component_of_WINDS"},"data":[0,0,0,3.0319,3.0319,3.0279,3.0279,3.0254,3.0254,0,0,0,0,0,0,0,0,0,0,0,3.0348,3.0348,3.032,3.0319,3.0279,3.0279,3.0254,3.0254,0,0,0,0,0,0,0,0,0,0,0,3.0348,3.0348,3.0349,3.0319,3.0279,3.0279,3.0254,3.0275,0,0,0,0,0,0,0,0,0,0,3.0309,3.0352,3.0348,3.0349,3.0319,3.0279,3.0279,3.0275,3.0273,3.0284,0,3.0298,0,3.0276,3.0254,3.0254,0,0,0,3.0306,3.0353,3.0327,3.0349,3.0319,3.0279,3.0294,3.0274,3.0272,3.0281,3.0297,3.0296,3.0275,3.0254,3.0254,3.0358,3.0359,0,0,3.0308,3.035,3.0329,3.0327,3.0336,3.0295,3.0293,3.0272,3.0292,3.0297,3.0295,3.0275,3.0254,3.0254,3.0357,3.0358,0,0,0,3.0323,3.0352,3.0326,3.0329,3.032,3.0294,3.0291,3.0293,3.0281,3.0294,3.0275,3.0254,3.0254,3.0355,3.0357,3.045,0,0,0,3.0324,3.036,3.0327,3.0352,3.0321,3.0306,3.0313,3.0282,3.0279,3.0275,3.0254,3.0254,3.0354,3.0356,3.0445,3.0487,0,0,0,3.0345,3.0362,3.0363,3.0355,3.0339,3.0305,3.0292,3.0281,3.0268,3.0254,3.0254,3.0353,3.0356,3.044,3.0479,3.0526,0,0,0,3.0379,3.0446,3.0365,3.0432,3.034,3.0364,3.0291,3.0307,3.0307,3.0254,3.0354,3.0357,3.0439,3.0474,3.0521,3.0571,3.0597,0,0,3.0486,3.046,3.0497,3.0423,3.0472,3.0367,3.0429,3.0389,3.035,3.0357,3.0359,3.0447,3.0479,3.0525,3.0726,3.0746,0,0,0,3.0545,3.0572,3.0576,3.0578,3.055,3.0529,3.0475,3.046,3.0464,3.0363,3.0475,3.0493,3.0518,3.054,3.0558,3.0576,3.0369,3.0369,3.0369,3.0755,3.0702,3.0759,3.0701,3.0704,3.0649,3.0646,3.0616,3.0561,3.0589,3.059,3.0719,3.0746,3.0759,3.0779,3.0613,3.0614,3.0614,3.0614,3.0907,3.0936,3.0863,3.0891,3.0834,3.0857,3.0806,3.0767,3.0779,3.0713,3.0733,3.0665,3.0783,3.0797,3.0621,3.062,3.0619,3.0618,3.0618,3.1038,3.1043,3.1024,3.1022,3.1026,3.0965,3.098,3.0928,3.0878,3.0898,3.0893,3.0891,3.0882,3.09,3.09,3.0901,3.0901,3.0901,3.0901,3.1181,3.1157,3.1177,3.1154,3.1148,3.1134,3.1079,3.1071,3.105,3.101,3.101,3.0952,3.0805,3.0769,3.0908,3.0907,3.0906,3.0905,3.0905,3.1352,3.1305,3.1336,3.1331,3.1298,3.1305,3.1239,3.1228,3.1215,3.1224,3.1162,3.1062,3.1031,3.1017,3.0986,3.1174,3.1174,3.1174,3.1174,3.1461,3.1441,3.1461,3.1456,3.1444,3.1388,3.1423,3.1381,3.133,3.1318,3.1284,3.1239,3.1227,3.1203,3.1185,3.1155,3.1382,3.1382,3.1382,3.1563,3.154,3.158,3.1531,3.1502,3.1479,3.151,3.1506,3.1438,3.1389,3.1307,3.1299,3.1226,3.1205,3.1154,3.1127,3.1071,0,0]}]]